Temperature
18 18 18 18 18 18 17 17 17 17 17 17 17 17 17 17 17 17 17 17 17 17 17 17 17 17 17 16 16 16 16 16 16 16 16 16 15 15 15 15 15 15 15
18 18 18 18 18 18 17 17 17 17 17 17 17 17 17 17 17 17 17 17 17 17 17 17 17 17 17 17 16 16 16 16 16 16 16 16 16 15 15 15 15 15 15
18 18 18 18 18 18 17 17 17 17 17 17 17 17 17 17 17 17 17 17 17 17 17 17 17 17 17 17 16 16 16 16 16 16 16 16 16 16 15 15 15 15 15
18 18 18 18 18 18 17 17 17 17 17 17 17 17 17 17 17 17 17 17 17 17 17 17 17 17 16 17 16 16 16 16 16 16 16 16 16 16 15 15 15 15 15
18 18 18 18 18 17 17 17 17 17 17 17 17 17 17 17 17 17 17 17 17 17 17 17 17 17 16 16 16 16 16 16 16 16 16 16 16 16 15 15 15 15 15
18 18 18 18 17 17 17 17 17 17 17 17 17 17 17 17 17 17 17 17 17 17 17 17 17 16 16 16 16 16 16 16 16 16 16 16 16 15 15 15 15 15 15
18 18 18 18 18 17 17 17 17 17 17 17 17 17 17 17 17 17 17 17 17 17 17 17 17 17 16 16 16 16 16 16 16 16 16 16 16 15 15 15 15 15 15
18 18 18 18 18 17 17 17 17 17 17 17 17 17 17 17 17 17 17 17 17 17 17 17 17 17 16 16 16 16 16 16 16 16 16 16 16 15 15 15 15 15 15
18 18 18 18 18 18 18 17 17 17 17 17 17 17 17 17 18 18 18 18 17 17 17 17 17 17 17 16 16 16 16 16 16 16 16 16 16 15 15 15 15 15 15
18 18 18 18 18 18 18 17 17 17 17 17 17 17 17 17 17 17 18 18 18 18 17 17 17 17 17 17 16 16 16 16 16 16 16 16 16 16 15 15 15 15 15
18 18 18 18 18 18 18 18 17 17 17 17 17 17 17 17 17 17 17 18 18 18 18 18 17 17 17 17 17 16 16 16 16 16 16 16 16 16 15 15 15 15 15
18 18 18 18 18 18 18 18 17 17 17 17 17 17 17 17 17 17 17 17 18 18 18 18 18 18 17 17 17 17 17 16 16 16 16 16 16 16 16 15 15 15 15
18 18 18 18 18 18 18 18 17 17 17 17 17 17 17 17 17 17 17 17 17 18 18 18 18 18 18 17 17 17 17 16 16 16 16 16 16 16 16 16 15 15 15
18 18 18 18 18 18 17 18 17 17 17 17 17 17 17 17 17 17 17 17 17 17 17 18 18 18 18 18 17 17 17 17 17 16 16 16 16 16 16 16 15 15 15
18 18 18 18 18 17 17 17 17 17 17 17 17 17 17 17 17 17 17 17 17 17 17 17 18 18 18 17 17 17 17 17 17 16 16 16 16 16 16 16 16 15 15
18 18 18 18 18 17 17 17 17 17 17 17 17 17 17 17 17 17 17 17 17 17 17 17 17 17 17 17 17 17 17 17 17 17 16 16 16 16 16 16 16 15 15
18 18 18 17 17 17 17 17 17 17 17 17 17 17 17 17 17 17 17 17 16 16 16 17 17 17 17 17 17 17 17 17 17 17 16 16 16 16 16 16 16 15 15
18 18 18 17 17 17 17 17 17 17 17 17 17 17 17 17 17 17 17 16 16 16 16 16 16 17 16 16 17 17 17 17 17 17 16 16 16 16 16 16 16 16 15
18 17 17 17 17 17 17 17 17 17 17 17 17 17 16 16 16 16 16 16 16 16 16 16 16 16 16 16 16 16 16 16 16 16 16 16 16 16 16 16 15 15 15
17 17 17 17 17 17 17 17 16 16 16 16 16 16 16 16 16 16 16 16 16 16 16 16 16 16 16 16 16 16 16 16 16 16 16 16 16 16 16 15 15 15 15
17 17 17 17 17 17 16 16 16 16 16 16 16 16 16 16 16 16 16 16 16 15 15 15 15 15 16 16 16 16 16 16 16 16 16 16 16 15 15 15 15 15 15
17 16 16 16 16 16 16 16 16 16 16 16 16 16 16 16 16 16 16 15 15 15 15 15 15 15 15 15 15 15 15 15 15 15 15 15 15 15 15 15 15 15 14
16 16 16 16 16 16 16 16 16 16 15 15 15 15 15 15 15 15 15 15 15 15 15 15 15 15 15 15 15 15 15 15 15 15 14 15 15 15 14 14 14 14 14
16 16 16 16 15 15 15 15 15 15 15 15 15 15 15 15 15 15 15 15 15 15 14 14 14 14 14 14 14 14 14 14 14 14 14 14 14 14 14 14 14 14 13
15 15 15 15 15 15 15 15 15 15 15 15 14 14 14 15 15 14 15 14 14 14 14 14 14 14 14 14 14 14 14 13 13 13 13 13 13 13 13 13 13 13 13
15 15 15 15 14 14 15 15 15 14 14 14 14 14 14 14 14 14 14 14 14 14 14 14 14 13 13 13 13 13 13 13 12 12 12 12 12 12 12 12 12 12 12
Wind_Speed
3 3 3 3 4 4 4 4 4 4 4 4 4 5 6 6 6 6 7 9 10 10 10 10 10 10 9 9 9 8 8 8 8 8 8 7 7 8 8 7 7 7 7
5 3 3 2 2 3 3 3 3 3 3 3 3 4 6 6 6 6 6 8 10 10 10 10 10 10 9 9 9 9 9 8 8 9 8 8 8 7 8 7 7 7 7
7 5 3 2 2 3 3 3 3 3 2 3 2 3 4 5 6 6 6 6 8 9 10 10 10 10 10 10 9 9 9 9 9 9 9 9 9 8 8 8 8 8 7
9 6 4 3 4 3 3 2 2 2 2 2 2 1 2 3 5 5 6 6 6 7 9 10 10 10 10 10 10 10 10 10 10 10 10 10 10 10 9 9 9 8 8
10 8 5 4 5 4 2 2 2 2 2 2 2 1 1 2 3 5 5 6 7 7 8 9 10 11 11 11 11 11 11 12 12 12 12 12 12 11 11 10 10 10 9
10 8 5 5 5 3 2 2 2 1 1 2 2 1 0 1 3 4 5 6 7 8 9 9 9 10 12 13 12 12 12 12 13 13 12 12 12 13 13 12 12 11 11
10 9 6 5 5 4 4 4 3 2 1 2 2 1 1 1 3 4 5 5 7 9 10 10 10 10 10 12 14 14 13 13 13 14 13 13 13 13 14 14 13 13 12
10 10 7 6 6 5 5 5 4 3 2 3 3 2 1 2 3 4 5 6 7 8 9 11 11 11 11 10 12 14 15 14 14 15 15 15 14 14 14 14 14 14 14
11 10 10 8 7 6 6 6 6 5 4 3 2 3 3 4 2 2 4 6 6 6 8 10 12 13 13 12 12 14 16 16 16 15 16 16 16 16 16 15 15 15 14
10 10 10 9 7 6 7 7 6 5 5 4 3 2 2 3 2 2 2 3 5 7 8 8 10 12 14 13 14 16 17 17 17 17 16 16 16 17 17 16 16 15 15
8 10 10 9 8 7 7 6 6 6 5 5 4 3 2 2 2 2 3 3 3 5 7 8 9 11 13 14 14 16 18 18 19 18 18 17 17 17 17 17 16 16 16
5 8 9 8 8 7 7 7 7 8 7 6 5 5 4 3 4 4 5 4 4 4 5 6 8 10 12 14 16 17 18 20 20 20 19 19 19 18 18 18 17 17 17
5 7 7 7 7 8 8 8 7 8 8 7 7 6 6 6 4 4 4 4 4 3 3 4 7 10 11 12 14 17 18 20 20 20 19 19 19 18 18 18 18 17 17
6 6 7 8 9 9 9 8 7 8 7 8 9 8 6 7 6 6 5 4 3 3 3 5 3 7 10 11 14 16 14 17 18 18 18 18 19 19 18 18 18 17 17
4 5 6 7 8 8 8 7 7 8 7 8 8 9 8 7 6 7 6 5 5 5 6 4 3 3 7 9 12 12 13 14 16 17 17 17 18 18 18 18 18 17 17
4 4 5 6 6 6 7 7 7 7 8 8 7 8 8 7 6 6 6 6 6 6 6 4 4 3 4 6 9 11 11 13 14 16 17 17 17 17 17 17 17 17 17
4 5 5 6 6 7 6 7 8 8 9 9 8 9 10 8 7 7 6 6 6 6 7 6 3 3 3 5 5 7 9 9 9 13 15 15 16 16 16 17 17 17 17
4 4 4 5 5 6 6 7 8 8 9 9 9 9 10 8 8 7 6 7 7 7 7 7 4 4 5 5 4 4 5 7 8 10 13 14 15 15 15 16 16 16 16
3 3 3 4 5 5 5 6 7 7 8 8 8 9 9 8 8 7 7 7 6 6 6 6 6 4 4 3 3 3 4 4 6 7 9 11 13 13 14 14 14 15 15
2 2 3 3 3 3 4 5 6 6 7 7 6 7 7 7 8 7 7 7 6 5 5 6 6 5 4 3 2 3 3 3 4 4 5 7 8 10 11 12 13 14 14
2 2 1 1 1 1 2 3 4 5 5 5 5 5 5 6 7 6 6 5 5 5 4 5 6 4 4 3 3 3 4 3 3 3 3 3 3 4 6 9 11 12 13
1 1 1 0 1 2 3 2 2 3 4 4 4 3 3 3 4 4 5 5 5 5 5 5 5 5 5 5 4 4 4 3 4 2 3 3 2 4 4 5 8 11 12
1 2 1 1 1 2 3 2 1 0 1 1 2 2 1 1 1 1 1 2 2 4 6 6 5 6 5 5 4 5 4 4 4 2 2 3 2 4 4 5 7 9 9
2 2 1 1 1 3 3 2 1 2 2 2 1 1 0 1 1 1 0 0 1 2 3 3 4 5 4 3 4 4 4 3 2 1 2 3 2 3 3 4 6 7 8
2 2 2 2 2 3 5 3 2 2 3 3 3 3 3 2 3 2 2 1 1 2 3 1 0 2 2 2 1 1 1 2 3 2 1 2 2 2 2 3 3 4 6
3 3 3 4 4 4 5 5 4 2 3 3 3 4 6 5 5 5 3 2 2 2 2 3 3 4 3 3 2 1 2 2 2 2 1 1 2 1 2 2 2 3 3
Wind_Direction
140 131 123 118 113 112 110 109 107 110 109 119 140 145 149 153 155 159 165 167 166 165 166 168 166 164 164 164 163 165 166 165 163 164 163 164 166 167 165 163 161 160 163
158 153 147 143 136 131 127 123 118 116 113 127 144 157 163 164 166 169 171 178 179 179 180 182 179 178 179 180 180 181 181 181 178 178 178 178 180 183 180 178 179 180 181
174 166 162 169 175 152 134 115 108 112 120 126 132 148 161 167 170 173 175 184 190 192 193 193 194 193 192 193 194 196 195 194 192 192 193 194 194 196 194 193 194 197 199
184 172 173 190 188 166 151 132 124 115 113 125 134 150 158 166 177 180 183 192 196 199 206 208 207 207 207 207 207 207 206 204 204 205 206 205 206 207 207 206 206 208 209
190 182 188 194 181 165 166 173 137 136 148 149 159 168 179 186 190 196 200 207 209 211 215 220 221 218 218 219 218 217 216 215 215 215 215 214 214 215 214 214 214 215 217
192 185 193 195 179 167 174 166 150 131 146 158 158 132 210 223 214 216 216 218 222 224 224 226 228 229 228 228 227 226 224 222 222 221 221 221 221 220 220 221 220 221 223
192 185 195 189 183 185 187 177 164 157 160 130 108 48 347 264 239 235 228 227 229 229 227 227 228 229 233 234 233 231 231 230 227 225 224 224 225 224 224 225 224 226 228
195 197 193 193 189 186 185 183 171 163 177 165 148 125 329 317 270 239 227 228 233 231 229 229 228 228 231 233 235 236 236 236 233 230 227 225 225 225 225 225 226 228 230
202 202 197 196 193 191 198 197 187 178 187 193 177 156 170 236 277 281 239 232 229 228 233 233 232 231 231 233 237 239 239 239 238 236 232 228 227 227 226 227 228 229 231
205 205 204 200 198 198 203 206 197 190 181 196 198 204 187 169 191 283 291 248 237 234 233 234 235 232 230 230 234 238 240 240 239 238 237 233 232 230 229 230 232 232 233
210 208 208 204 203 206 210 205 195 196 194 195 192 186 190 192 194 205 266 283 263 243 236 234 236 236 233 231 234 238 240 241 240 239 238 236 235 234 232 233 236 236 236
216 213 208 206 208 209 211 209 206 205 205 204 202 195 184 185 197 199 227 247 257 262 243 236 235 235 233 231 234 236 239 241 241 239 238 237 237 235 235 235 237 239 240
220 218 212 210 213 215 214 209 209 215 210 208 211 213 211 215 193 189 208 233 249 267 269 248 235 235 236 232 234 235 238 240 239 239 239 238 238 238 237 237 238 240 242
222 215 210 214 217 216 217 210 213 218 214 218 222 217 219 223 211 203 199 199 238 267 263 260 252 235 238 234 236 232 235 237 236 238 239 239 239 239 238 237 238 241 243
219 215 214 220 223 220 217 210 217 221 218 222 225 223 224 227 219 218 210 201 207 242 260 252 252 247 237 236 239 233 231 234 233 235 237 238 239 239 238 239 239 240 242
214 213 221 226 231 227 220 216 221 222 220 225 224 226 228 227 223 218 215 214 211 219 247 249 240 251 251 252 243 234 237 237 235 233 234 237 239 238 238 239 238 239 240
211 216 224 227 231 231 224 221 226 223 225 230 229 228 232 225 221 219 213 214 217 215 239 259 244 252 248 254 253 238 240 236 238 234 234 235 237 237 238 238 238 238 238
214 219 224 230 234 234 226 225 232 229 228 230 231 228 233 228 222 219 214 218 220 215 225 250 256 245 245 247 243 240 241 236 235 237 234 235 235 235 236 238 238 237 238
215 218 219 233 242 240 233 231 233 234 234 235 232 229 231 224 228 225 219 222 224 222 222 237 254 246 249 249 242 247 241 239 239 239 237 237 235 235 236 237 238 237 237
204 218 226 239 250 249 244 241 237 239 238 239 237 234 232 226 228 227 225 223 221 221 222 235 249 251 248 241 223 237 250 239 246 248 240 236 235 234 235 237 239 240 239
211 212 212 256 278 273 277 262 245 240 237 240 244 242 241 231 226 223 225 221 216 220 226 236 247 250 248 230 230 225 241 249 248 233 236 239 228 232 236 238 240 241 239
188 117 97 66 359 325 319 292 254 243 234 234 242 250 249 242 232 221 220 220 212 220 232 239 247 249 256 244 236 226 232 237 251 221 217 243 219 240 246 240 240 236 235
125 100 84 63 13 347 350 348 359 256 226 236 246 253 253 279 259 234 232 237 242 244 234 232 243 251 255 253 238 236 227 226 239 228 202 247 236 245 257 254 245 242 239
105 98 69 48 29 5 10 13 30 76 66 50 34 4 1 354 352 352 50 50 337 306 265 235 236 251 256 258 239 237 236 231 239 244 201 242 251 255 270 266 258 251 250
100 81 61 58 48 21 24 30 64 85 75 55 46 45 45 37 26 57 84 57 5 356 24 43 294 307 328 323 249 215 224 230 259 259 206 232 258 264 268 267 275 262 252
97 82 63 54 51 32 25 37 58 82 77 61 52 47 47 46 42 54 69 69 24 351 4 14 21 14 11 12 32 222 233 238 249 261 237 219 253 257 278 276 286 295 284
Height
1565 1566 1568 1569 1571 1573 1574 1575 1576 1578 1579 1579 1580 1581 1581 1582 1583 1583 1584 1585 1586 1587 1588 1589 1590 1591 1592 1593 1594 1595 1596 1597 1598 1598 1599 1600 1601 1602 1603 1603 1604 1604 1605
1566 1568 1569 1571 1572 1574 1575 1577 1578 1579 1580 1581 1581 1582 1582 1583 1584 1584 1585 1586 1586 1587 1588 1589 1590 1591 1592 1593 1594 1595 1596 1597 1597 1598 1599 1600 1601 1602 1603 1603 1604 1604 1605
1567 1569 1570 1572 1574 1575 1576 1577 1578 1580 1580 1581 1582 1583 1583 1584 1584 1585 1586 1586 1587 1588 1589 1589 1590 1591 1592 1593 1594 1595 1595 1596 1597 1598 1599 1600 1600 1601 1602 1603 1603 1604 1605
1568 1569 1571 1573 1574 1575 1577 1578 1579 1580 1581 1582 1582 1583 1584 1584 1585 1586 1586 1587 1587 1588 1589 1589 1590 1591 1592 1593 1593 1594 1595 1596 1596 1597 1598 1599 1600 1600 1601 1602 1602 1603 1604
1568 1569 1571 1573 1574 1576 1577 1578 1579 1580 1581 1582 1583 1583 1584 1584 1585 1585 1586 1587 1587 1588 1588 1589 1590 1590 1591 1592 1592 1593 1594 1595 1595 1596 1597 1598 1598 1599 1600 1600 1601 1602 1602
1567 1569 1571 1572 1574 1575 1576 1578 1579 1580 1581 1582 1582 1583 1583 1584 1584 1585 1585 1586 1587 1587 1588 1588 1589 1589 1590 1591 1591 1592 1592 1593 1594 1594 1595 1596 1596 1597 1598 1599 1599 1600 1600
1567 1568 1570 1571 1573 1574 1575 1577 1578 1579 1580 1581 1582 1582 1582 1583 1583 1583 1584 1585 1585 1586 1587 1587 1588 1588 1589 1589 1589 1590 1590 1591 1592 1592 1593 1593 1594 1595 1596 1596 1597 1597 1598
1565 1567 1568 1570 1571 1572 1574 1575 1576 1577 1579 1580 1581 1581 1581 1582 1581 1581 1582 1583 1583 1584 1585 1585 1586 1586 1587 1587 1587 1588 1588 1589 1589 1590 1590 1591 1591 1592 1593 1594 1594 1595 1595
1563 1565 1566 1568 1569 1571 1572 1573 1574 1576 1577 1578 1579 1580 1580 1579 1579 1579 1579 1580 1581 1582 1583 1583 1584 1584 1585 1585 1585 1585 1586 1586 1586 1587 1588 1588 1589 1589 1590 1591 1591 1592 1592
1561 1563 1564 1565 1567 1568 1569 1571 1572 1573 1574 1575 1576 1577 1578 1578 1579 1578 1578 1578 1579 1579 1580 1580 1581 1582 1582 1582 1582 1583 1583 1583 1584 1584 1585 1585 1586 1586 1587 1588 1588 1589 1589
1558 1560 1561 1562 1564 1565 1566 1568 1569 1570 1571 1572 1573 1574 1575 1576 1576 1576 1576 1576 1576 1577 1577 1577 1578 1578 1579 1579 1579 1580 1580 1580 1581 1581 1582 1582 1583 1583 1584 1584 1585 1585 1586
1555 1556 1558 1559 1560 1562 1563 1564 1565 1567 1568 1569 1570 1571 1572 1572 1573 1573 1573 1573 1573 1574 1574 1574 1575 1575 1575 1575 1576 1576 1577 1577 1577 1578 1578 1579 1579 1580 1580 1581 1581 1582 1582
1551 1552 1554 1555 1556 1558 1559 1561 1561 1562 1564 1565 1566 1567 1568 1569 1570 1570 1570 1570 1570 1570 1570 1571 1571 1571 1572 1572 1572 1572 1572 1573 1573 1574 1575 1575 1575 1576 1576 1577 1577 1578 1578
1547 1549 1550 1551 1552 1553 1554 1556 1557 1558 1559 1560 1561 1562 1563 1564 1565 1566 1566 1567 1566 1566 1566 1566 1567 1567 1567 1567 1568 1568 1568 1569 1569 1570 1571 1571 1571 1572 1572 1573 1573 1574 1574
1544 1545 1546 1547 1548 1549 1550 1551 1552 1553 1554 1555 1556 1557 1558 1559 1560 1561 1562 1563 1563 1562 1561 1562 1563 1563 1563 1563 1564 1564 1564 1565 1565 1565 1566 1566 1567 1567 1568 1568 1569 1569 1570
1540 1541 1542 1542 1543 1544 1545 1546 1547 1548 1548 1549 1550 1551 1552 1553 1554 1555 1556 1557 1558 1558 1557 1557 1558 1558 1559 1559 1559 1559 1559 1560 1560 1561 1561 1562 1562 1563 1563 1563 1564 1564 1565
1536 1537 1538 1538 1539 1539 1540 1541 1541 1542 1543 1544 1545 1546 1547 1548 1549 1550 1551 1552 1552 1553 1552 1552 1553 1553 1553 1554 1554 1554 1555 1555 1555 1556 1556 1557 1557 1558 1558 1558 1559 1559 1560
1532 1533 1534 1534 1534 1535 1535 1536 1536 1537 1538 1539 1540 1541 1541 1543 1543 1544 1545 1546 1547 1548 1548 1547 1547 1548 1548 1548 1549 1549 1549 1550 1550 1551 1551 1552 1552 1553 1553 1553 1553 1554 1554
1528 1529 1530 1530 1530 1530 1530 1531 1532 1532 1533 1534 1535 1536 1537 1538 1538 1539 1540 1541 1541 1542 1543 1542 1542 1542 1542 1543 1543 1544 1544 1544 1545 1545 1546 1547 1547 1547 1547 1548 1548 1548 1548
1525 1525 1526 1526 1526 1526 1526 1527 1527 1528 1529 1530 1531 1531 1532 1533 1533 1534 1535 1535 1536 1536 1537 1537 1537 1537 1537 1538 1538 1538 1538 1539 1539 1540 1541 1541 1542 1542 1542 1542 1543 1543 1543
1522 1522 1523 1523 1523 1523 1523 1523 1523 1524 1524 1525 1526 1527 1527 1528 1529 1529 1530 1530 1531 1531 1532 1532 1532 1532 1532 1532 1532 1533 1533 1533 1534 1535 1535 1535 1536 1536 1536 1537 1537 1537 1537
1519 1519 1520 1520 1520 1520 1520 1520 1520 1520 1521 1521 1522 1522 1523 1524 1524 1525 1525 1526 1526 1527 1527 1527 1527 1527 1527 1527 1528 1527 1528 1528 1528 1530 1530 1530 1530 1530 1531 1531 1531 1531 1531
1517 1517 1517 1518 1517 1517 1517 1517 1517 1517 1517 1517 1518 1518 1519 1519 1520 1521 1521 1521 1522 1522 1523 1523 1522 1522 1522 1522 1523 1522 1522 1522 1523 1524 1524 1523 1524 1524 1525 1525 1525 1525 1525
1514 1515 1515 1515 1515 1515 1516 1515 1516 1515 1515 1515 1515 1516 1516 1516 1517 1517 1517 1517 1517 1518 1518 1518 1518 1518 1518 1518 1518 1518 1518 1518 1518 1518 1519 1518 1518 1518 1519 1519 1519 1519 1519
1513 1513 1513 1514 1514 1514 1514 1514 1514 1513 1513 1513 1514 1514 1514 1514 1514 1515 1515 1514 1514 1514 1515 1514 1514 1514 1514 1513 1513 1513 1513 1513 1512 1512 1513 1513 1512 1512 1513 1513 1513 1513 1513
1511 1511 1512 1512 1512 1512 1512 1512 1512 1512 1512 1512 1512 1512 1512 1512 1512 1512 1512 1512 1511 1512 1512 1511 1511 1510 1510 1509 1509 1509 1509 1509 1507 1507 1507 1508 1507 1507 1507 1507 1507 1507 1507